Time,TemperatureF,DewpointF,PressureIn,WindDirection,WindDirectionDegrees,WindSpeedMPH,WindSpeedGustMPH,Humidity,HourlyPrecipIn,Conditions,Clouds,dailyrainin,SolarRadiationWatts/m^2,SoftwareType,DateUTC
2013-06-03 00:02:00,42.0,42.0,-100.00,NE,46,1.0,3.0,100,0.00,,,0.00,0.000000,,2013-06-03 07:02:00,
2013-06-03 00:32:00,39.0,39.0,-100.00,ENE,60,1.0,3.0,100,0.00,,,0.00,0.000000,,2013-06-03 07:32:00,
2013-06-03 01:32:00,39.0,39.0,-100.00,NE,51,1.0,4.0,100,-99.99,,,0.00,0.000000,,2013-06-03 08:32:00,
2013-06-03 01:42:00,39.0,39.0,-100.00,NE,51,1.0,4.0,100,-99.99,,,0.00,0.000000,,2013-06-03 08:42:00,
2013-06-03 01:52:00,39.0,39.0,-100.00,NE,51,1.0,4.0,100,-99.99,,,0.00,0.000000,,2013-06-03 08:52:00,
2013-06-03 02:02:00,39.0,39.0,-100.00,NE,51,1.0,4.0,100,-99.99,,,0.00,0.000000,,2013-06-03 09:02:00,
2013-06-03 02:33:00,37.0,37.0,-100.00,East,101,1.0,5.0,100,-99.99,,,0.00,0.000000,,2013-06-03 09:33:00,
2013-06-03 02:43:00,37.0,37.0,-100.00,East,101,1.0,5.0,100,-99.99,,,0.00,0.000000,,2013-06-03 09:43:00,
2013-06-03 02:53:00,37.0,37.0,-100.00,East,101,1.0,5.0,100,-99.99,,,0.00,0.000000,,2013-06-03 09:53:00,
2013-06-03 03:02:00,37.0,37.0,-100.00,East,101,1.0,5.0,100,-99.99,,,0.00,0.000000,,2013-06-03 10:02:00,
2013-06-03 03:33:00,36.0,36.0,-100.00,ESE,110,1.0,5.0,100,0.00,,,0.00,0.000000,,2013-06-03 10:33:00,
2013-06-03 03:42:00,36.0,36.0,-100.00,ESE,110,1.0,5.0,100,0.00,,,0.00,0.000000,,2013-06-03 10:42:00,
2013-06-03 03:52:00,36.0,36.0,-100.00,ESE,110,1.0,5.0,100,0.00,,,0.00,0.000000,,2013-06-03 10:52:00,
2013-06-03 04:02:00,36.0,36.0,-100.00,ESE,110,1.0,5.0,100,0.00,,,0.00,0.000000,,2013-06-03 11:02:00,
2013-06-03 04:32:00,35.0,35.0,-100.00,ENE,74,1.0,4.0,100,-99.99,,,0.00,0.000000,,2013-06-03 11:32:00,
2013-06-03 04:42:00,35.0,35.0,-100.00,ENE,74,1.0,4.0,100,-99.99,,,0.00,0.000000,,2013-06-03 11:42:00,
2013-06-03 04:52:00,35.0,35.0,-100.00,ENE,74,1.0,4.0,100,-99.99,,,0.00,0.000000,,2013-06-03 11:52:00,
2013-06-03 05:02:00,35.0,35.0,-100.00,ENE,74,1.0,4.0,100,-99.99,,,0.00,0.000000,,2013-06-03 12:02:00,
2013-06-03 05:32:00,35.0,35.0,-100.00,ENE,78,1.0,4.0,100,-99.99,,,0.00,0.000000,,2013-06-03 12:32:00,
2013-06-03 05:42:00,35.0,35.0,-100.00,ENE,78,1.0,4.0,100,-99.99,,,0.00,0.000000,,2013-06-03 12:42:00,
2013-06-03 05:52:00,35.0,35.0,-100.00,ENE,78,1.0,4.0,100,-99.99,,,0.00,0.000000,,2013-06-03 12:52:00,
2013-06-03 06:02:00,35.0,35.0,-100.00,ENE,78,1.0,4.0,100,-99.99,,,0.00,0.000000,,2013-06-03 13:02:00,
2013-06-03 06:32:00,39.0,39.0,-100.00,NE,50,1.0,5.0,100,-99.99,,,0.00,8.000000,,2013-06-03 13:32:00,
2013-06-03 06:43:00,39.0,39.0,-100.00,NE,50,1.0,5.0,100,-99.99,,,0.00,8.000000,,2013-06-03 13:43:00,
2013-06-03 06:52:00,39.0,39.0,-100.00,NE,50,1.0,5.0,100,-99.99,,,0.00,8.000000,,2013-06-03 13:52:00,
2013-06-03 07:02:00,39.0,39.0,-100.00,NE,50,1.0,5.0,100,-99.99,,,0.00,8.000000,,2013-06-03 14:02:00,
2013-06-03 07:32:00,41.0,41.0,-100.00,ENE,64,1.0,3.0,100,0.00,,,0.00,58.000000,,2013-06-03 14:32:00,
2013-06-03 07:42:00,41.0,41.0,-100.00,ENE,64,1.0,3.0,100,0.00,,,0.00,58.000000,,2013-06-03 14:42:00,
2013-06-03 07:52:00,41.0,41.0,-100.00,ENE,64,1.0,3.0,100,0.00,,,0.00,58.000000,,2013-06-03 14:52:00,
2013-06-03 08:02:00,41.0,41.0,-100.00,ENE,64,1.0,3.0,100,0.00,,,0.00,58.000000,,2013-06-03 15:02:00,
2013-06-03 08:33:00,43.0,43.0,-100.00,SE,133,0.0,4.0,100,0.00,,,0.00,117.000000,,2013-06-03 15:33:00,
2013-06-03 08:43:00,43.0,43.0,-100.00,SE,133,0.0,4.0,100,0.00,,,0.00,117.000000,,2013-06-03 15:43:00,
2013-06-03 08:53:00,43.0,43.0,-100.00,SE,133,0.0,4.0,100,0.00,,,0.00,117.000000,,2013-06-03 15:53:00,
2013-06-03 09:03:00,43.0,43.0,-100.00,SE,133,0.0,4.0,100,0.00,,,0.00,117.000000,,2013-06-03 16:03:00,
2013-06-03 09:33:00,57.0,45.0,-100.00,NE,36,1.0,5.0,64,-99.99,,,0.00,579.000000,,2013-06-03 16:33:00,
2013-06-03 09:42:00,57.0,45.0,-100.00,NE,36,1.0,5.0,64,-99.99,,,0.00,579.000000,,2013-06-03 16:42:00,
2013-06-03 09:53:00,57.0,45.0,-100.00,NE,36,1.0,5.0,64,-99.99,,,0.00,579.000000,,2013-06-03 16:53:00,
2013-06-03 10:02:00,57.0,45.0,-100.00,NE,36,1.0,5.0,64,-99.99,,,0.00,579.000000,,2013-06-03 17:02:00,
2013-06-03 10:33:00,62.0,46.0,-100.00,West,273,3.0,10.0,56,0.00,,,0.00,896.000000,,2013-06-03 17:33:00,
2013-06-03 10:42:00,62.0,46.0,-100.00,West,273,3.0,10.0,56,0.00,,,0.00,896.000000,,2013-06-03 17:42:00,
2013-06-03 10:52:00,62.0,46.0,-100.00,West,273,3.0,10.0,56,0.00,,,0.00,896.000000,,2013-06-03 17:52:00,
2013-06-03 11:02:00,62.0,46.0,-100.00,West,273,3.0,10.0,56,0.00,,,0.00,896.000000,,2013-06-03 18:02:00,
2013-06-03 11:32:00,68.0,48.0,-100.00,WNW,291,2.0,10.0,49,0.00,,,0.00,1075.000000,,2013-06-03 18:32:00,
2013-06-03 11:43:00,68.0,48.0,-100.00,WNW,291,2.0,10.0,49,0.00,,,0.00,1075.000000,,2013-06-03 18:43:00,
2013-06-03 11:52:00,68.0,48.0,-100.00,WNW,291,2.0,10.0,49,0.00,,,0.00,1075.000000,,2013-06-03 18:52:00,
2013-06-03 12:03:00,68.0,48.0,-100.00,WNW,291,2.0,10.0,49,0.00,,,0.00,1075.000000,,2013-06-03 19:03:00,
2013-06-03 12:33:00,70.0,46.0,-100.00,ENE,74,3.0,14.0,42,0.00,,,0.00,1192.000000,,2013-06-03 19:33:00,
2013-06-03 12:42:00,70.0,46.0,-100.00,ENE,74,3.0,14.0,42,0.00,,,0.00,1192.000000,,2013-06-03 19:42:00,
2013-06-03 12:52:00,70.0,46.0,-100.00,ENE,74,3.0,14.0,42,0.00,,,0.00,1192.000000,,2013-06-03 19:52:00,
2013-06-03 13:02:00,70.0,46.0,-100.00,ENE,74,3.0,14.0,42,0.00,,,0.00,1192.000000,,2013-06-03 20:02:00,
2013-06-03 13:33:00,73.0,46.0,-100.00,NNE,30,3.0,14.0,38,0.00,,,0.00,1266.000000,,2013-06-03 20:33:00,
2013-06-03 13:43:00,73.0,46.0,-100.00,NNE,30,3.0,14.0,38,0.00,,,0.00,1266.000000,,2013-06-03 20:43:00,
2013-06-03 13:52:00,73.0,46.0,-100.00,NNE,30,3.0,14.0,38,0.00,,,0.00,1266.000000,,2013-06-03 20:52:00,
2013-06-03 14:02:00,73.0,46.0,-100.00,NNE,30,3.0,14.0,38,0.00,,,0.00,1266.000000,,2013-06-03 21:02:00,
2013-06-03 14:33:00,75.0,43.0,-100.00,North,359,4.0,14.0,32,0.00,,,0.00,1266.000000,,2013-06-03 21:33:00,
2013-06-03 14:43:00,75.0,43.0,-100.00,North,359,4.0,14.0,32,0.00,,,0.00,1266.000000,,2013-06-03 21:43:00,
2013-06-03 14:53:00,75.0,43.0,-100.00,North,359,4.0,14.0,32,0.00,,,0.00,1266.000000,,2013-06-03 21:53:00,
2013-06-03 15:02:00,75.0,43.0,-100.00,North,359,4.0,14.0,32,0.00,,,0.00,1266.000000,,2013-06-03 22:02:00,
2013-06-03 15:33:00,75.0,44.0,-100.00,NNE,17,4.0,12.0,33,-99.99,,,0.00,1196.000000,,2013-06-03 22:33:00,
2013-06-03 15:42:00,75.0,44.0,-100.00,NNE,17,4.0,12.0,33,-99.99,,,0.00,1196.000000,,2013-06-03 22:42:00,
2013-06-03 15:53:00,75.0,44.0,-100.00,NNE,17,4.0,12.0,33,-99.99,,,0.00,1196.000000,,2013-06-03 22:53:00,
2013-06-03 16:02:00,75.0,44.0,-100.00,NNE,17,4.0,12.0,33,-99.99,,,0.00,1196.000000,,2013-06-03 23:02:00,
2013-06-03 16:32:00,76.0,47.0,-100.00,SSE,167,4.0,12.0,36,0.00,,,0.00,1059.000000,,2013-06-03 23:32:00,
2013-06-03 16:42:00,76.0,47.0,-100.00,SSE,167,4.0,12.0,36,0.00,,,0.00,1059.000000,,2013-06-03 23:42:00,
2013-06-03 16:52:00,76.0,47.0,-100.00,SSE,167,4.0,12.0,36,0.00,,,0.00,1059.000000,,2013-06-03 23:52:00,
2013-06-03 17:02:00,76.0,47.0,-100.00,SSE,167,4.0,12.0,36,0.00,,,0.00,1059.000000,,2013-06-04 00:02:00,
2013-06-03 17:32:00,74.0,46.0,-100.00,NNW,341,3.0,10.0,37,-99.99,,,0.00,878.000000,,2013-06-04 00:32:00,
2013-06-03 17:42:00,74.0,46.0,-100.00,NNW,341,3.0,10.0,37,-99.99,,,0.00,878.000000,,2013-06-04 00:42:00,
2013-06-03 17:52:00,74.0,46.0,-100.00,NNW,341,3.0,10.0,37,-99.99,,,0.00,878.000000,,2013-06-04 00:52:00,
2013-06-03 18:02:00,74.0,46.0,-100.00,NNW,341,3.0,10.0,37,-99.99,,,0.00,878.000000,,2013-06-04 01:02:00,
2013-06-03 18:32:00,70.0,45.0,-100.00,WNW,295,3.0,12.0,41,-99.99,,,0.00,658.000000,,2013-06-04 01:32:00,
2013-06-03 18:42:00,70.0,45.0,-100.00,WNW,295,3.0,12.0,41,-99.99,,,0.00,658.000000,,2013-06-04 01:42:00,
2013-06-03 18:52:00,70.0,45.0,-100.00,WNW,295,3.0,12.0,41,-99.99,,,0.00,658.000000,,2013-06-04 01:52:00,
2013-06-03 19:02:00,70.0,45.0,-100.00,WNW,295,3.0,12.0,41,-99.99,,,0.00,658.000000,,2013-06-04 02:02:00,
2013-06-03 19:32:00,64.0,45.0,-100.00,NW,306,2.0,10.0,51,0.00,,,0.00,257.000000,,2013-06-04 02:32:00,
2013-06-03 19:42:00,64.0,45.0,-100.00,NW,306,2.0,10.0,51,0.00,,,0.00,257.000000,,2013-06-04 02:42:00,
2013-06-03 19:52:00,64.0,45.0,-100.00,NW,306,2.0,10.0,51,0.00,,,0.00,257.000000,,2013-06-04 02:52:00,
2013-06-03 20:02:00,64.0,45.0,-100.00,NW,306,2.0,10.0,51,0.00,,,0.00,257.000000,,2013-06-04 03:02:00,
2013-06-03 20:33:00,56.0,45.0,-100.00,SW,236,1.0,13.0,66,0.00,,,0.00,73.000000,,2013-06-04 03:33:00,
2013-06-03 21:02:00,56.0,45.0,-100.00,SW,236,1.0,13.0,66,0.00,,,0.00,73.000000,,2013-06-04 04:02:00,
2013-06-03 21:33:00,51.0,45.0,-100.00,NNW,348,1.0,6.0,80,0.00,,,0.00,11.000000,,2013-06-04 04:33:00,
2013-06-03 22:02:00,51.0,45.0,-100.00,NNW,348,1.0,6.0,80,0.00,,,0.00,11.000000,,2013-06-04 05:02:00,
2013-06-03 22:32:00,46.0,45.0,-100.00,ESE,110,1.0,2.0,96,0.00,,,0.00,0.000000,,2013-06-04 05:32:00,
2013-06-03 23:32:00,45.0,45.0,-100.00,NW,310,0.0,4.0,100,-99.99,,,0.00,0.000000,,2013-06-04 06:32:00,